Weather Roundup
Issued by NWS Springfield, MO

Home | Current Version | Previous Version | Text Only | Print | Product List | Glossary On
Versions: 1 2 3 4 5 6 7 8 9 10 11 12 13 14 15 16 17 18 19 20 21 22 23 24 25 26 27 28 29 30 31 32 33 34 35 36 37 38 39 40 41 42 43 44 45 46 47 48 49 50
000
NZUS99 KSGF 262007
HRRSGF

HOURLY WEATHER
NATIONAL WEATHER SERVICE SPRINGFIELD MO
300 PM CDT FRI AUG 26 2016

......SGF CWA......

CITY           SKY/WX    TMP DP  RH WIND       PRES   REMARKS
SPRINGFIELD    CLOUDY    80  71  74 S7        30.07F
JOPLIN         PTSUNNY   80  72  76 S8        30.06F
WEST PLAINS    SUNNY     86  69  56 VRB3      30.09F HX  90
ROLLA          CLOUDY    81  72  74 CALM      30.07F
OSAGE BEACH    LGT RAIN  77  74  90 CALM      30.07F
BRANSON        PTSUNNY   84  68  58 SW6       30.10F

......SURROUNDING SGF CWA......

CITY           SKY/WX    TMP DP  RH WIND       PRES   REMARKS
CHANUTE        PTSUNNY   86  72  62 S6        30.03F HX  92
PARSONS        MOSUNNY   87  70  56 S9        30.04F HX  92
COFFEYVILLE    CLOUDY    87  71  58 S12G18    30.02F HX  93
EMPORIA        PTSUNNY   84  67  56 S16       30.04F
GROVE OK       PTSUNNY   79  70  73 SE10      30.07F
ROGERS AR      LGT RAIN  73  70  90 SE5       30.10F
SILOAM SPRINGS MOSUNNY   72  63  73 SE6       30.09F
HARRISON AR    MOSUNNY   84  68  58 S5        30.09F
NEAR YELLVILLE PTSUNNY   86  70  58 CALM      30.03F HX  90

......KANSAS AND MISSOURI......

CITY           SKY/WX    TMP DP  RH WIND       PRES   REMARKS
KANSAS CTY INT CLOUDY    83  68  60 S9        30.05F
DOWNTOWN KC    MOSUNNY   85  68  56 VRB3      30.03F
COLUMBIA       CLOUDY    80  73  79 SE6       30.07F
SEDALIA        CLOUDY    79  72  79 E6        30.07F
ST JOSEPH      PTSUNNY   79  69  71 NE5       30.05F
ST LOUIS       CLOUDY    87  73  62 NW7       30.05F HX  94
SPIRIT OF STL  CLOUDY    85  74  69 VRB3      30.03F HX  92
KIRKSVILLE     CLOUDY    76  69  79 E7        30.08F
WICHITA        PTSUNNY   81  66  60 S3        30.03F
TOPEKA         MOSUNNY   80  72  76 E6        30.02F
OLATHE         PTSUNNY   80  69  69 SE6       30.05F

......TENNESSEE......

CITY           SKY/WX    TMP DP  RH WIND       PRES   REMARKS
MEMPHIS        CLOUDY    80  73  79 SE6       30.03F
NASHVILLE      MOSUNNY   94  71  47 E10       30.05F HX 101

......ARKANSAS.......

CITY           SKY/WX    TMP DP  RH WIND       PRES   REMARKS
FAYETTEVILLE   CLOUDY    69  68  96 E8        30.09F
FT SMITH       MOSUNNY   81  69  67 SE5       30.04F
LITTLE ROCK    MOSUNNY   93  72  50 CALM      30.01F HX 101

......OKLAHOMA.......

CITY           SKY/WX    TMP DP  RH WIND       PRES   REMARKS
TULSA          CLOUDY    88  73  61 SE12      30.00F HX  95
PONCA CITY     MOSUNNY   87  66  49 VRB6      30.02F
MCALESTER      CLOUDY    83  72  69 SE6       30.04F
OKLAHOMA CITY  PTSUNNY   89  65  44 NW14      30.00F HX  91

......IOWA............

CITY           SKY/WX    TMP DP  RH WIND       PRES   REMARKS
DES MOINES     CLOUDY    72  64  76 E8        30.11R
QUAD CITIES    CLOUDY    78  64  61 E8        30.10F

......ILLINOIS........

CITY           SKY/WX    TMP DP  RH WIND       PRES   REMARKS
QUINCY         MOSUNNY   77  71  82 E6        30.07F
CHICAGO        PTSUNNY   79  60  52 NE10      30.12F



USA.gov is the U.S. government's official web portal to all federal, state and local government web resources and services.